| time (UTC) | temp F | wind direction | speed MPH | gust MPH | rain 1hr in | rain 24hr in | rain mn in | humidity % | barometer mb |
| 20260502190605 | 61 | 311 | 2.0 | 6.0 | 0.00 | 0.00 | 0.00 | 39 | 1010.5 |
| 20260502190104 | 60 | 325 | 2.0 | 7.0 | 0.00 | 0.00 | 0.00 | 39 | 1010.7 |
| 20260502185605 | 59 | 122 | 1.0 | 3.0 | 0.00 | 0.00 | 0.00 | 39 | 1010.7 |
| 20260502184604 | 61 | 324 | 0.0 | 3.0 | 0.00 | 0.00 | 0.00 | 39 | 1010.9 |
| 20260502184104 | 61 | 270 | 1.0 | 3.0 | 0.00 | 0.00 | 0.00 | 39 | 1011.1 |
| 20260502183604 | 61 | 322 | 1.0 | 2.0 | 0.00 | 0.00 | 0.00 | 39 | 1011.0 |
| 20260502183104 | 61 | 304 | 2.0 | 6.0 | 0.00 | 0.00 | 0.00 | 41 | 1011.1 |
| 20260502182605 | 61 | 329 | 3.0 | 7.0 | 0.00 | 0.00 | 0.00 | 40 | 1011.2 |
| 20260502182105 | 61 | 348 | 2.0 | 5.0 | 0.00 | 0.00 | 0.00 | 41 | 1011.2 |
| 20260502181105 | 60 | 336 | 0.0 | 2.0 | 0.00 | 0.00 | 0.00 | 44 | 1011.3 |
| 20260502180604 | 59 | 16 | 2.0 | 5.0 | 0.00 | 0.00 | 0.00 | 43 | 1011.3 |
| 20260502180104 | 59 | 302 | 1.0 | 6.0 | 0.00 | 0.00 | 0.00 | 44 | 1011.3 |
| 20260502164105 | 58 | 331 | 2.0 | 3.0 | 0.00 | 0.00 | 0.00 | 51 | 1011.7 |
| 20260502163605 | 58 | 334 | 1.0 | 3.0 | 0.00 | 0.00 | 0.00 | 53 | 1011.8 |
| 20260502163105 | 57 | 323 | 2.0 | 7.0 | 0.00 | 0.00 | 0.00 | 53 | 1012.0 |
| 20260502162604 | 57 | 31 | 1.0 | 3.0 | 0.00 | 0.00 | 0.00 | 55 | 1012.1 |
| 20260502162104 | 57 | 59 | 2.0 | 5.0 | 0.00 | 0.00 | 0.00 | 55 | 1012.0 |
| 20260502161105 | 57 | 199 | 1.0 | 2.0 | 0.00 | 0.00 | 0.00 | 56 | 1012.3 |
| 20260502160605 | 57 | 349 | 1.0 | 3.0 | 0.00 | 0.00 | 0.00 | 56 | 1012.4 |
| 20260502160105 | 57 | 338 | 1.0 | 5.0 | 0.00 | 0.00 | 0.00 | 55 | 1012.4 |
| 20260502151605 | 56 | 36 | 0.0 | 3.0 | 0.00 | 0.00 | 0.00 | 58 | 1011.9 |
| 20260502151105 | 56 | 57 | 1.0 | 3.0 | 0.00 | 0.00 | 0.00 | 57 | 1012.0 |
| 20260502150605 | 56 | 273 | 1.0 | 3.0 | 0.00 | 0.00 | 0.00 | 57 | 1012.0 |
| 20260502150105 | 56 | 319 | 1.0 | 3.0 | 0.00 | 0.00 | 0.00 | 57 | 1011.9 |
| 20260502140105 | 55 | 311 | 0.0 | 3.0 | 0.00 | 0.00 | 0.00 | 65 | 1012.1 |
| 20260502130105 | 54 | 106 | 1.0 | 3.0 | 0.00 | 0.00 | 0.00 | 66 | 1012.3 |
| 20260502123604 | 54 | 282 | 2.0 | 3.0 | 0.00 | 0.00 | 0.00 | 66 | 1012.1 |
| 20260502123105 | 54 | 318 | 1.0 | 3.0 | 0.00 | 0.00 | 0.00 | 67 | 1012.2 |
| 20260502122605 | 54 | 358 | 1.0 | 5.0 | 0.00 | 0.00 | 0.00 | 68 | 1012.2 |
| 20260502122104 | 53 | 228 | 1.0 | 2.0 | 0.00 | 0.00 | 0.00 | 68 | 1012.2 |
| 20260502121105 | 53 | 306 | 0.0 | 2.0 | 0.00 | 0.00 | 0.00 | 70 | 1012.1 |
| 20260502120604 | 53 | 331 | 0.0 | 2.0 | 0.00 | 0.00 | 0.00 | 70 | 1012.1 |
| 20260502120105 | 52 | 204 | 0.0 | 1.0 | 0.00 | 0.00 | 0.00 | 71 | 1012.1 |
| 20260502115605 | 52 | 319 | 0.0 | 1.0 | 0.00 | 0.00 | 0.00 | 71 | 1012.1 |
| 20260502115104 | 52 | 219 | 0.0 | 1.0 | 0.00 | 0.00 | 0.00 | 72 | 1012.0 |
| 20260502114106 | 51 | 182 | 1.0 | 2.0 | 0.00 | 0.00 | 0.00 | 72 | 1011.9 |
| 20260502113605 | 51 | 148 | 0.0 | 1.0 | 0.00 | 0.00 | 0.00 | 73 | 1011.9 |
| 20260502113105 | 50 | 148 | 0.0 | 0.0 | 0.00 | 0.00 | 0.00 | 74 | 1011.9 |
| 20260502112605 | 50 | 148 | 0.0 | 1.0 | 0.00 | 0.00 | 0.00 | 74 | 1012.0 |
| 20260502112104 | 49 | 149 | 0.0 | 1.0 | 0.00 | 0.00 | 0.00 | 76 | 1011.9 |
| 20260502111604 | 49 | 229 | 0.0 | 0.0 | 0.00 | 0.00 | 0.00 | 76 | 1011.9 |
| 20260502111104 | 48 | 229 | 0.0 | 1.0 | 0.00 | 0.00 | 0.00 | 76 | 1011.9 |
| 20260502110105 | 48 | 229 | 0.0 | 1.0 | 0.00 | 0.00 | 0.00 | 77 | 1011.8 |
| 20260502105604 | 47 | 229 | 0.0 | 0.0 | 0.00 | 0.00 | 0.00 | 77 | 1011.7 |
| 20260502105105 | 47 | 229 | 0.0 | 0.0 | 0.00 | 0.00 | 0.00 | 76 | 1011.7 |
| 20260502104605 | 47 | 230 | 0.0 | 0.0 | 0.00 | 0.00 | 0.00 | 76 | 1011.7 |
| 20260502104105 | 47 | 230 | 0.0 | 0.0 | 0.00 | 0.00 | 0.00 | 76 | 1011.6 |
| 20260502103604 | 47 | 230 | 0.0 | 0.0 | 0.00 | 0.00 | 0.00 | 76 | 1011.5 |
| 20260502103105 | 47 | 230 | 0.0 | 0.0 | 0.00 | 0.00 | 0.00 | 76 | 1011.5 |
| 20260502102605 | 47 | 230 | 0.0 | 0.0 | 0.00 | 0.00 | 0.00 | 76 | 1011.4 |
| 20260502101105 | 47 | 230 | 0.0 | 1.0 | 0.00 | 0.00 | 0.00 | 76 | 1011.3 |
| 20260502100606 | 47 | 144 | 0.0 | 0.0 | 0.00 | 0.00 | 0.00 | 76 | 1011.2 |
| 20260502100105 | 47 | 139 | 0.0 | 0.0 | 0.00 | 0.00 | 0.00 | 76 | 1011.2 |
| 20260502091105 | 49 | 139 | 0.0 | 0.0 | 0.00 | 0.00 | 0.00 | 72 | 1011.1 |
| 20260502090605 | 50 | 139 | 0.0 | 0.0 | 0.00 | 0.00 | 0.00 | 72 | 1011.1 |
| 20260502090104 | 50 | 139 | 0.0 | 0.0 | 0.00 | 0.00 | 0.00 | 72 | 1011.1 |
| 20260502080104 | 51 | 63 | 0.0 | 1.0 | 0.00 | 0.00 | 0.00 | 72 | 1010.9 |
| 20260502071105 | 51 | 127 | 0.0 | 0.0 | 0.00 | 0.00 | 0.00 | 76 | 1011.1 |
| 20260502070605 | 51 | 142 | 0.0 | 2.0 | 0.00 | 0.00 | 0.00 | 76 | 1011.2 |
| 20260502065604 | 51 | 140 | 0.0 | 2.0 | 0.00 | 0.00 | 0.00 | 76 | 1011.2 |
| 20260502065104 | 51 | 80 | 0.0 | 2.0 | 0.00 | 0.00 | 0.00 | 76 | 1011.2 |
| 20260502064605 | 51 | 134 | 0.0 | 3.0 | 0.00 | 0.00 | 0.00 | 76 | 1011.4 |
| 20260502064105 | 51 | 176 | 0.0 | 2.0 | 0.00 | 0.00 | 0.00 | 76 | 1011.4 |
| 20260502063605 | 51 | 157 | 0.0 | 1.0 | 0.00 | 0.00 | 0.00 | 75 | 1011.5 |
| 20260502063104 | 51 | 130 | 0.0 | 1.0 | 0.00 | 0.00 | 0.00 | 75 | 1011.4 |
| 20260502062604 | 52 | 173 | 0.0 | 5.0 | 0.00 | 0.00 | 0.00 | 75 | 1011.4 |
| 20260502062104 | 52 | 169 | 0.0 | 3.0 | 0.00 | 0.00 | 0.00 | 75 | 1011.4 |
| 20260502061105 | 52 | 79 | 1.0 | 3.0 | 0.00 | 0.00 | 0.00 | 75 | 1011.3 |
| 20260502060605 | 52 | 142 | 0.0 | 2.0 | 0.00 | 0.00 | 0.00 | 75 | 1011.5 |
| 20260502060104 | 52 | 110 | 0.0 | 2.0 | 0.00 | 0.00 | 0.00 | 75 | 1011.8 |
| 20260502055604 | 52 | 127 | 0.0 | 2.0 | 0.00 | 0.00 | 0.00 | 75 | 1011.6 |
| 20260502055104 | 52 | 235 | 0.0 | 3.0 | 0.00 | 0.00 | 0.00 | 75 | 1011.6 |
| 20260502054104 | 52 | 109 | 1.0 | 2.0 | 0.00 | 0.00 | 0.00 | 75 | 1011.6 |
| 20260502053104 | 52 | 253 | 0.0 | 3.0 | 0.00 | 0.00 | 0.00 | 75 | 1011.8 |
| 20260502052604 | 52 | 162 | 0.0 | 2.0 | 0.00 | 0.00 | 0.00 | 75 | 1011.8 |
| 20260502052104 | 52 | 203 | 0.0 | 1.0 | 0.00 | 0.00 | 0.00 | 75 | 1011.8 |
| 20260502051604 | 52 | 102 | 1.0 | 3.0 | 0.00 | 0.00 | 0.00 | 75 | 1011.7 |
| 20260502051104 | 52 | 132 | 1.0 | 3.0 | 0.00 | 0.00 | 0.00 | 74 | 1011.7 |
| 20260502050604 | 52 | 125 | 2.0 | 3.0 | 0.00 | 0.00 | 0.00 | 75 | 1011.7 |
| 20260502050105 | 52 | 132 | 0.0 | 3.0 | 0.00 | 0.00 | 0.00 | 74 | 1011.7 |
| 20260502045605 | 52 | 132 | 0.0 | 2.0 | 0.00 | 0.00 | 0.00 | 74 | 1011.7 |
| 20260502045105 | 52 | 134 | 1.0 | 5.0 | 0.00 | 0.00 | 0.00 | 74 | 1011.8 |
| 20260502043105 | 52 | 108 | 0.0 | 2.0 | 0.00 | 0.00 | 0.00 | 73 | 1011.8 |
| 20260502042604 | 52 | 112 | 1.0 | 3.0 | 0.00 | 0.00 | 0.00 | 72 | 1011.8 |
| 20260502042104 | 52 | 118 | 1.0 | 1.0 | 0.00 | 0.00 | 0.00 | 72 | 1011.8 |
| 20260502041105 | 52 | 133 | 3.0 | 5.0 | 0.00 | 0.00 | 0.00 | 71 | 1011.7 |
| 20260502040104 | 52 | 120 | 1.0 | 3.0 | 0.00 | 0.00 | 0.00 | 71 | 1011.6 |
| 20260502035104 | 52 | 123 | 1.0 | 6.0 | 0.00 | 0.00 | 0.00 | 70 | 1011.6 |
| 20260502034604 | 52 | 128 | 0.0 | 2.0 | 0.00 | 0.00 | 0.00 | 69 | 1011.6 |
| 20260502033104 | 52 | 133 | 1.0 | 3.0 | 0.00 | 0.00 | 0.00 | 67 | 1011.1 |
| 20260502032605 | 52 | 83 | 0.0 | 3.0 | 0.00 | 0.00 | 0.00 | 66 | 1010.8 |
| 20260502032104 | 52 | 64 | 1.0 | 3.0 | 0.00 | 0.00 | 0.00 | 66 | 1011.1 |
| 20260502031604 | 52 | 115 | 1.0 | 3.0 | 0.00 | 0.00 | 0.00 | 65 | 1011.3 |
| 20260502030104 | 53 | 134 | 0.0 | 3.0 | 0.00 | 0.00 | 0.00 | 64 | 1011.7 |
| 20260502025605 | 53 | 129 | 1.0 | 3.0 | 0.00 | 0.00 | 0.00 | 63 | 1011.6 |
| 20260502025105 | 53 | 124 | 3.0 | 6.0 | 0.00 | 0.00 | 0.00 | 63 | 1011.5 |
| 20260502024606 | 53 | 117 | 2.0 | 5.0 | 0.00 | 0.00 | 0.00 | 63 | 1011.6 |
| 20260502023105 | 53 | 146 | 1.0 | 5.0 | 0.00 | 0.00 | 0.00 | 61 | 1012.1 |
| 20260502022105 | 53 | 130 | 2.0 | 6.0 | 0.00 | 0.00 | 0.00 | 60 | 1012.1 |
| 20260502021604 | 53 | 128 | 2.0 | 5.0 | 0.00 | 0.00 | 0.00 | 59 | 1012.0 |
| 20260502021104 | 53 | 146 | 1.0 | 6.0 | 0.00 | 0.00 | 0.00 | 59 | 1011.9 |
| 20260502020105 | 54 | 113 | 2.0 | 3.0 | 0.00 | 0.00 | 0.00 | 59 | 1011.8 |
| 20260502015605 | 54 | 110 | 1.0 | 3.0 | 0.00 | 0.00 | 0.00 | 58 | 1011.7 |
| 20260502015105 | 54 | 130 | 2.0 | 6.0 | 0.00 | 0.00 | 0.00 | 58 | 1011.8 |
| 20260502014605 | 54 | 105 | 1.0 | 3.0 | 0.00 | 0.00 | 0.00 | 57 | 1011.9 |
| 20260502014104 | 55 | 88 | 1.0 | 5.0 | 0.00 | 0.00 | 0.00 | 57 | 1011.8 |
| 20260502013605 | 55 | 126 | 2.0 | 8.0 | 0.00 | 0.00 | 0.00 | 56 | 1011.8 |
| 20260502013105 | 55 | 116 | 1.0 | 5.0 | 0.00 | 0.00 | 0.00 | 56 | 1011.7 |
| 20260502012605 | 55 | 118 | 2.0 | 5.0 | 0.00 | 0.00 | 0.00 | 56 | 1011.6 |
| 20260502012105 | 55 | 121 | 1.0 | 3.0 | 0.00 | 0.00 | 0.00 | 55 | 1011.6 |
| 20260502011606 | 56 | 126 | 1.0 | 3.0 | 0.00 | 0.00 | 0.00 | 54 | 1011.6 |
| 20260502011104 | 56 | 126 | 0.0 | 3.0 | 0.00 | 0.00 | 0.00 | 54 | 1011.5 |
| 20260502010605 | 56 | 108 | 1.0 | 5.0 | 0.00 | 0.00 | 0.00 | 53 | 1011.6 |
| 20260502005605 | 56 | 128 | 1.0 | 7.0 | 0.00 | 0.00 | 0.00 | 53 | 1011.4 |
| 20260502005105 | 57 | 133 | 1.0 | 2.0 | 0.00 | 0.00 | 0.00 | 52 | 1011.4 |
| 20260502004605 | 57 | 105 | 0.0 | 2.0 | 0.00 | 0.00 | 0.00 | 51 | 1011.3 |
| 20260502004105 | 57 | 112 | 1.0 | 3.0 | 0.00 | 0.00 | 0.00 | 51 | 1011.1 |
| 20260502003105 | 58 | 134 | 1.0 | 3.0 | 0.00 | 0.00 | 0.00 | 50 | 1010.8 |
| 20260502002605 | 58 | 127 | 1.0 | 3.0 | 0.00 | 0.00 | 0.00 | 50 | 1010.6 |
| 20260502002105 | 58 | 57 | 0.0 | 3.0 | 0.00 | 0.00 | 0.00 | 49 | 1010.7 |
| 20260502001605 | 58 | 102 | 0.0 | 2.0 | 0.00 | 0.00 | 0.00 | 48 | 1010.8 |
| 20260502001104 | 59 | 125 | 0.0 | 1.0 | 0.00 | 0.00 | 0.00 | 47 | 1010.8 |
| 20260502000604 | 59 | 156 | 0.0 | 3.0 | 0.00 | 0.00 | 0.00 | 47 | 1010.8 |
| 20260502000106 | 59 | 117 | 0.0 | 1.0 | 0.00 | 0.00 | 0.00 | 46 | 1010.8 |
| 20260501235605 | 60 | 117 | 0.0 | 3.0 | 0.00 | 0.00 | 0.00 | 46 | 1010.9 |
| 20260501235105 | 60 | 183 | 0.0 | 1.0 | 0.00 | 0.00 | 0.00 | 45 | 1010.7 |
| 20260501234605 | 60 | 210 | 1.0 | 6.0 | 0.00 | 0.00 | 0.00 | 45 | 1010.7 |
| 20260501233604 | 61 | 136 | 1.0 | 3.0 | 0.00 | 0.03 | 0.00 | 43 | 1010.6 |
| 20260501233105 | 61 | 161 | 1.0 | 7.0 | 0.00 | 0.03 | 0.00 | 43 | 1010.5 |
| 20260501232605 | 61 | 188 | 0.0 | 2.0 | 0.00 | 0.03 | 0.00 | 43 | 1010.4 |
| 20260501231604 | 62 | 123 | 1.0 | 2.0 | 0.00 | 0.03 | 0.00 | 42 | 1010.3 |
| 20260501231105 | 62 | 187 | 1.0 | 5.0 | 0.00 | 0.03 | 0.00 | 41 | 1010.3 |
| 20260501230605 | 62 | 142 | 1.0 | 5.0 | 0.00 | 0.03 | 0.00 | 41 | 1010.3 |
| 20260501230105 | 63 | 270 | 1.0 | 3.0 | 0.00 | 0.03 | 0.00 | 41 | 1010.3 |
| 20260501225105 | 63 | 175 | 2.0 | 3.0 | 0.00 | 0.03 | 0.00 | 40 | 1010.3 |
| 20260501224605 | 63 | 177 | 2.0 | 6.0 | 0.00 | 0.03 | 0.00 | 39 | 1010.3 |
| 20260501224105 | 63 | 148 | 1.0 | 3.0 | 0.00 | 0.03 | 0.00 | 39 | 1010.3 |
| 20260501223604 | 63 | 183 | 3.0 | 6.0 | 0.00 | 0.03 | 0.00 | 38 | 1010.3 |
| 20260501223104 | 64 | 174 | 1.0 | 6.0 | 0.00 | 0.03 | 0.00 | 38 | 1010.4 |
| 20260501221604 | 65 | 123 | 2.0 | 7.0 | 0.00 | 0.03 | 0.00 | 39 | 1010.3 |
| 20260501221106 | 65 | 153 | 2.0 | 9.0 | 0.00 | 0.03 | 0.00 | 38 | 1010.3 |
| 20260501220605 | 65 | 2 | 2.0 | 3.0 | 0.00 | 0.03 | 0.00 | 38 | 1010.3 |
| 20260501215604 | 66 | 283 | 2.0 | 6.0 | 0.00 | 0.03 | 0.00 | 38 | 1010.3 |
| 20260501215105 | 66 | 170 | 2.0 | 5.0 | 0.00 | 0.03 | 0.00 | 37 | 1010.3 |
| 20260501214604 | 66 | 147 | 3.0 | 7.0 | 0.00 | 0.03 | 0.00 | 37 | 1010.3 |
| 20260501214105 | 66 | 158 | 2.0 | 7.0 | 0.00 | 0.03 | 0.00 | 37 | 1010.3 |
| 20260501213604 | 66 | 211 | 1.0 | 7.0 | 0.00 | 0.03 | 0.00 | 36 | 1010.3 |
| 20260501213105 | 66 | 146 | 2.0 | 7.0 | 0.00 | 0.03 | 0.00 | 36 | 1010.4 |
| 20260501212106 | 66 | 135 | 1.0 | 6.0 | 0.00 | 0.03 | 0.00 | 37 | 1010.4 |
| 20260501211605 | 66 | 169 | 2.0 | 8.0 | 0.00 | 0.03 | 0.00 | 36 | 1010.4 |
| 20260501211105 | 67 | 141 | 3.0 | 7.0 | 0.00 | 0.03 | 0.00 | 34 | 1010.4 |
| 20260501210605 | 67 | 143 | 2.0 | 5.0 | 0.00 | 0.03 | 0.00 | 38 | 1010.4 |
| 20260501210105 | 67 | 181 | 2.0 | 5.0 | 0.00 | 0.03 | 0.00 | 35 | 1010.5 |
| 20260501205605 | 67 | 243 | 2.0 | 3.0 | 0.00 | 0.03 | 0.00 | 35 | 1010.5 |
| 20260501205105 | 67 | 146 | 3.0 | 10.0 | 0.00 | 0.03 | 0.00 | 35 | 1010.5 |
| 20260501204604 | 67 | 188 | 2.0 | 7.0 | 0.00 | 0.03 | 0.00 | 35 | 1010.5 |
| 20260501204104 | 67 | 162 | 2.0 | 7.0 | 0.00 | 0.03 | 0.00 | 35 | 1010.5 |
| 20260501203606 | 67 | 199 | 3.0 | 7.0 | 0.00 | 0.03 | 0.00 | 36 | 1010.4 |
| 20260501203105 | 67 | 179 | 2.0 | 5.0 | 0.00 | 0.03 | 0.00 | 35 | 1010.4 |
| 20260501202104 | 67 | 327 | 2.0 | 7.0 | 0.00 | 0.03 | 0.00 | 36 | 1010.4 |
| 20260501201605 | 66 | 196 | 1.0 | 7.0 | 0.00 | 0.03 | 0.00 | 37 | 1010.4 |
| 20260501201105 | 66 | 151 | 2.0 | 5.0 | 0.00 | 0.03 | 0.00 | 37 | 1010.4 |
| 20260501200605 | 66 | 158 | 2.0 | 6.0 | 0.00 | 0.03 | 0.00 | 36 | 1010.5 |
| 20260501200105 | 66 | 142 | 2.0 | 6.0 | 0.00 | 0.03 | 0.00 | 35 | 1010.6 |
| 20260501195605 | 67 | 348 | 3.0 | 9.0 | 0.00 | 0.03 | 0.00 | 35 | 1010.6 |
| 20260501195105 | 66 | 275 | 1.0 | 3.0 | 0.00 | 0.03 | 0.00 | 36 | 1010.6 |
| 20260501194605 | 66 | 115 | 1.0 | 7.0 | 0.00 | 0.03 | 0.00 | 35 | 1010.7 |
| 20260501194105 | 66 | 317 | 1.0 | 3.0 | 0.00 | 0.03 | 0.00 | 37 | 1010.8 |
| 20260501193604 | 66 | 164 | 2.0 | 8.0 | 0.00 | 0.03 | 0.00 | 37 | 1010.8 |
| 20260501193105 | 66 | 144 | 1.0 | 9.0 | 0.00 | 0.03 | 0.00 | 36 | 1010.8 |
| 20260501191605 | 66 | 156 | 2.0 | 3.0 | 0.00 | 0.03 | 0.00 | 36 | 1011.1 |